Dewpoint
57 57 57 58 58 59 59 59 60 60 60 60 59 60 60 60 60 60 60 60 61 60 60 60 60 60 59 60 60 58 53 21 16 16 15 26 44 54 56 59 57 56 53 42 33 26 14 18 16 18 16 15 19 19 22 23 25 30 20 17 14 15 13 14 12 14 17 15 15 16 20 20 17 20 19 19 18 17 18 18 18 18 18 18 17 16 15 14
57 57 57 58 58 58 59 60 60 60 60 60 60 60 60 60 60 60 60 61 61 60 60 61 60 59 60 59 59 53 42 21 14 15 19 39 55 54 55 58 55 56 54 37 30 27 16 16 21 15 10 14 22 15 24 18 23 23 20 17 10 17 17 16 17 16 16 15 16 16 18 19 19 20 19 18 19 19 19 18 17 16 16 15 15 14 14 14
57 57 57 58 58 59 59 59 60 60 60 60 60 60 60 60 60 60 60 60 61 60 60 61 60 58 59 60 57 53 40 15 11 12 15 51 53 54 55 57 54 55 40 33 37 31 26 22 22 15 12 9 18 16 21 21 24 23 19 11 14 19 15 16 16 16 18 18 15 15 17 18 20 20 20 18 19 20 22 18 17 16 14 14 14 14 11 8
57 57 57 57 58 59 59 59 59 59 60 60 60 60 60 60 60 60 60 60 60 61 61 60 61 58 56 56 56 48 32 22 8 12 17 52 52 53 53 55 53 49 45 38 39 30 29 24 20 15 16 17 23 20 20 24 24 22 20 16 18 17 15 15 15 16 17 19 16 16 17 16 18 20 20 20 19 20 19 18 21 17 14 13 12 8 5 3
57 57 57 57 58 59 58 59 59 59 60 60 60 60 60 61 61 61 61 60 60 60 61 61 58 55 53 53 54 45 27 5 11 16 25 53 52 51 52 52 51 42 39 33 31 27 24 19 19 22 24 17 26 21 22 21 22 24 19 17 15 18 14 14 15 18 18 18 17 17 15 16 19 20 21 20 19 18 22 23 21 16 13 11 7 3 1 1
57 57 57 58 58 58 58 58 59 59 59 60 60 60 60 60 60 60 60 59 61 60 60 60 60 57 53 48 48 38 26 5 24 14 46 52 50 50 50 49 47 44 38 22 21 23 15 11 15 19 19 17 21 14 20 22 24 11 22 21 17 16 13 14 15 16 19 17 17 18 17 18 18 18 20 19 19 18 21 23 17 14 11 7 3 2 0 0
57 57 57 57 57 57 58 58 59 60 59 59 60 60 59 60 60 60 59 59 60 59 60 59 59 58 55 50 40 19 14 15 14 18 42 48 47 46 49 45 42 38 29 16 13 14 20 13 16 24 20 23 22 20 22 21 23 21 17 21 20 17 12 14 14 16 17 18 17 18 21 16 18 18 19 16 16 20 20 17 17 13 9 5 1 -0 -0 -1
57 57 57 56 56 57 58 58 59 59 59 59 60 60 59 59 59 59 59 59 58 57 57 58 56 57 55 40 31 19 14 13 14 21 40 44 31 31 41 39 34 34 21 23 22 10 19 19 14 26 19 20 23 21 26 19 23 20 16 20 20 13 11 10 14 16 16 17 18 18 12 13 17 17 18 15 15 16 15 12 8 4 1 0 -1 0 1 0
56 57 56 56 57 57 57 58 59 59 59 59 60 60 60 59 58 58 59 59 59 59 57 55 56 53 50 41 22 12 11 13 21 23 20 21 22 28 27 23 29 18 20 21 23 18 13 19 26 22 20 22 22 24 25 23 20 27 23 18 13 5 9 7 11 15 15 13 16 14 4 17 17 17 16 15 15 14 10 5 1 -1 -2 -2 -3 -2 -2 -2
56 56 56 56 57 57 58 59 58 58 59 60 60 60 60 60 58 58 59 59 59 59 57 52 50 48 40 27 30 9 12 17 17 18 19 22 23 23 22 25 24 18 15 18 20 21 16 18 20 19 20 21 21 25 24 17 13 27 18 21 6 5 9 4 6 10 14 11 13 8 4 14 16 15 15 16 15 12 4 1 -1 -2 -3 -3 -3 -1 -2 -2
57 56 56 57 57 57 58 58 58 58 59 59 60 60 60 59 58 59 59 59 58 60 58 56 53 30 18 12 11 8 19 15 18 16 19 22 22 20 20 24 23 20 16 16 20 24 25 22 25 22 28 19 22 22 21 23 23 18 9 22 22 3 9 1 -0 9 11 9 11 10 5 12 15 16 15 14 15 8 1 -1 -2 -3 -3 -3 -3 -3 -2 -3
56 56 56 57 57 58 58 58 57 58 58 59 59 59 59 58 58 59 59 58 58 58 58 51 49 17 14 10 9 9 12 18 22 15 18 22 22 26 25 25 21 17 15 13 18 24 28 28 29 21 11 22 16 19 25 21 20 13 13 9 8 -1 3 -0 -0 7 9 4 11 9 6 9 13 13 16 14 13 5 -0 -2 -2 -3 -3 -3 -3 -3 -2 -2
56 56 56 57 57 58 58 57 57 58 58 58 59 58 57 57 58 58 58 56 57 57 55 52 43 32 27 13 11 12 19 21 20 15 17 21 23 24 21 21 19 20 18 16 18 24 30 27 15 12 21 25 22 13 24 16 9 21 11 13 6 7 4 -0 2 7 6 9 13 7 3 2 10 15 15 15 11 2 -0 -2 -3 -3 -3 -3 -2 -3 -3 -2
56 56 56 57 57 57 57 57 57 57 56 56 56 56 55 56 57 57 56 56 56 56 52 49 38 31 22 13 10 15 19 29 18 14 16 21 20 19 20 21 19 17 22 20 23 28 26 25 15 16 31 15 15 22 16 8 16 3 10 16 11 4 4 3 6 9 3 10 11 9 5 3 9 12 15 15 10 3 -1 -3 -3 -3 -2 -2 -1 -2 -3 -2
56 56 56 57 57 57 57 58 56 54 53 54 55 55 55 54 55 55 55 53 55 54 57 50 32 36 20 14 11 12 45 35 12 14 17 21 21 16 15 20 18 19 17 18 17 19 21 24 22 13 12 27 28 21 17 10 9 10 13 8 8 6 4 2 9 8 4 6 9 11 6 2 8 10 12 15 12 3 -1 -3 -3 -2 -2 -2 -2 -3 -2 -1
56 57 56 56 56 56 56 56 56 54 50 50 51 53 56 55 54 54 54 51 51 52 55 43 36 20 17 10 10 27 18 12 12 15 16 21 21 18 20 17 18 17 15 14 18 17 19 15 14 17 15 15 10 9 11 9 7 9 9 12 9 4 3 5 2 9 13 9 6 7 5 3 9 10 11 14 12 3 -1 -2 -2 -3 -2 -3 -3 -2 -1 1
55 55 56 57 56 56 56 56 56 57 56 56 55 49 48 50 51 55 52 46 38 41 21 23 33 33 17 16 14 13 14 15 16 14 15 20 21 21 18 15 16 16 16 14 15 18 18 10 21 17 20 10 12 18 14 7 5 4 6 5 5 6 3 2 3 9 13 10 6 6 8 8 9 10 12 14 12 2 -1 -2 -2 -2 -2 -2 -2 -2 -0 2
55 56 56 56 56 56 56 56 56 56 56 56 56 57 45 47 44 43 41 45 46 43 38 33 28 28 20 14 12 13 15 16 16 14 15 20 22 20 18 15 17 15 17 12 12 12 15 9 13 13 11 12 8 7 7 4 7 3 4 5 3 3 4 4 4 7 9 16 11 7 6 11 9 9 12 13 10 2 -1 -2 -2 -2 -2 -1 -1 0 2 3
55 56 56 56 56 56 56 56 56 56 55 56 57 57 55 52 48 31 32 31 38 28 24 21 24 18 16 14 14 15 17 18 18 14 15 19 21 20 23 21 17 15 18 13 14 14 18 15 20 13 10 10 10 8 7 11 4 5 4 3 4 7 3 3 4 7 14 10 11 6 8 7 8 8 10 11 8 2 -1 -2 -1 -2 -2 -1 1 3 4 6
55 56 55 56 56 56 56 56 55 53 53 51 52 44 46 26 34 31 30 32 26 27 27 28 24 22 14 15 15 17 19 16 11 12 15 20 20 17 13 17 20 22 24 16 24 14 25 16 14 11 9 10 9 9 8 5 6 6 6 5 4 4 4 4 6 8 18 13 6 10 11 8 7 6 8 9 7 2 -1 -1 -0 0 -0 2 5 5 7 8
55 55 55 55 56 56 56 55 54 52 53 52 55 45 25 39 34 20 24 28 27 30 27 25 23 14 13 15 16 18 12 11 12 12 16 22 21 15 10 14 20 15 19 25 23 24 30 14 17 16 11 11 9 11 11 10 10 6 4 7 7 5 4 5 5 6 13 12 7 10 7 9 7 5 6 7 5 2 0 1 -0 -2 1 4 6 8 9 9
55 55 55 55 56 56 57 56 53 52 49 49 49 35 35 38 37 41 34 18 27 32 22 20 22 16 17 16 17 18 14 10 10 11 16 22 18 9 17 13 17 16 18 26 22 18 14 14 16 15 12 15 15 10 9 12 10 5 4 6 9 4 6 7 8 8 8 13 6 8 5 6 4 3 4 4 3 2 2 1 -1 2 6 6 7 8 10 10
54 54 55 55 55 56 56 56 52 50 49 47 40 39 34 44 44 44 40 23 21 28 28 29 21 16 14 17 18 18 11 11 12 10 16 22 17 21 23 11 15 18 17 18 12 10 14 13 14 14 13 9 5 7 8 12 10 2 4 5 5 4 5 3 6 7 7 10 7 7 8 6 4 2 2 2 1 2 2 3 6 8 8 8 8 8 9 9
53 54 54 54 55 55 56 54 54 53 46 45 43 39 40 47 42 37 37 22 22 19 25 23 22 21 15 14 18 14 12 13 15 11 17 21 19 24 20 17 15 16 17 20 13 13 11 15 16 17 14 8 8 6 7 7 5 6 4 5 7 3 3 3 4 6 11 13 13 6 2 6 4 1 0 0 0 -0 1 3 4 4 10 10 11 10 10 10
53 53 54 54 54 56 53 48 46 41 44 47 44 43 45 45 43 36 31 21 24 21 23 29 24 19 19 21 21 17 15 17 15 15 19 21 21 22 18 23 22 13 18 22 20 15 13 14 16 14 9 6 9 6 6 6 9 5 5 4 2 3 3 5 6 3 1 -2 9 4 -5 -7 5 2 0 -1 -1 -1 1 4 3 6 8 8 6 6 7 8
52 53 54 53 54 52 53 46 36 44 48 40 41 44 44 43 45 46 34 25 13 19 32 21 18 17 20 15 18 25 24 17 15 15 24 20 25 20 24 15 19 13 18 19 11 13 13 15 14 13 9 10 9 4 8 9 4 5 4 5 5 6 5 4 3 3 1 -1 4 6 -5 -3 -7 2 0 -0 -1 0 3 3 3 10 7 7 6 5 5 5
52 53 54 52 52 47 41 40 42 43 33 32 47 44 44 45 47 42 22 24 13 19 17 22 22 20 25 17 22 25 12 17 14 16 16 20 23 26 19 15 21 23 23 18 21 5 18 15 15 11 8 8 6 3 5 8 7 3 5 5 7 5 2 2 3 3 -1 2 6 1 -1 -6 -6 2 2 1 0 2 3 5 9 6 7 7 4 4 4 3
52 54 54 52 51 46 39 41 41 42 35 42 45 44 44 44 45 41 28 11 -2 28 18 25 20 28 21 21 19 14 15 21 20 12 21 22 22 23 17 17 13 16 18 20 6 13 11 15 12 10 7 6 4 4 10 9 7 6 7 7 6 5 4 5 6 2 -1 0 -2 -4 -4 -5 -4 2 3 2 0 1 2 5 8 7 7 5 5 5 4 3
52 53 53 54 49 47 47 45 47 39 38 44 41 45 44 44 41 31 20 3 6 20 31 21 26 22 24 29 21 26 23 23 16 21 25 26 16 22 12 18 17 18 20 20 8 14 17 13 17 13 7 6 9 7 8 6 3 9 8 9 8 7 3 4 0 1 3 -0 -1 -5 -5 -5 -5 2 1 3 3 2 3 7 7 6 5 4 5 4 2 0
50 52 52 50 52 52 46 46 46 47 44 41 45 44 41 40 27 14 5 -3 14 10 23 24 22 20 27 27 22 21 16 21 24 25 24 15 16 19 22 22 22 14 13 20 13 13 13 25 23 20 9 9 8 8 13 5 9 11 12 6 3 2 0 1 -1 3 3 -4 -2 -5 -5 -7 -4 1 4 3 3 7 7 6 7 6 5 4 4 2 2 -6
50 51 49 53 51 42 43 33 40 44 42 43 45 43 39 34 25 15 -2 10 21 19 28 26 22 29 23 17 14 22 23 24 20 25 18 22 17 21 22 18 26 9 12 19 18 17 23 25 17 14 24 15 13 11 15 11 9 10 1 0 2 -1 0 -0 3 4 -2 -3 -5 -5 -7 -4 -7 -7 3 5 8 8 9 9 7 5 4 4 4 0 -7 -7
50 48 50 47 47 43 36 37 42 44 44 40 44 41 32 19 26 2 5 27 10 15 11 18 24 18 21 19 14 17 13 21 22 21 12 10 11 13 14 12 17 11 11 10 11 16 10 8 8 14 23 11 9 6 6 13 9 5 2 2 2 1 2 -1 0 -2 -3 -3 -3 -4 -5 -4 -9 -0 3 4 4 8 10 9 7 6 3 1 -0 -5 -5 -6
51 50 48 46 47 47 46 45 43 44 42 43 42 38 32 24 -0 15 11 16 8 13 12 24 21 17 13 11 13 15 18 13 19 20 20 17 13 10 16 16 16 6 4 10 9 8 8 9 8 12 11 14 9 1 2 2 4 3 0 2 2 -0 -1 -1 -2 -0 -1 -2 -3 -4 -4 -9 -7 -5 7 3 3 8 9 10 9 5 3 -1 -5 -5 -10 -8
48 46 44 43 45 46 45 43 43 43 41 44 44 34 22 9 3 24 15 18 9 20 22 17 19 14 10 5 10 13 8 15 13 13 22 12 12 8 9 12 16 15 20 9 3 6 6 5 6 7 3 14 8 5 5 3 2 1 1 1 2 2 0 -0 -2 -3 -1 -1 -3 -5 -1 -2 -4 -4 5 3 8 6 11 14 7 5 2 -2 -5 -12 -9 -9
46 46 45 43 43 42 44 41 43 43 43 40 33 28 10 7 10 15 12 15 16 19 17 19 9 6 8 7 10 13 12 14 11 12 15 12 9 10 9 9 14 17 16 10 13 11 2 3 7 11 11 11 7 10 10 6 4 2 2 2 3 2 4 1 1 1 3 -1 -2 -1 -3 -2 -2 2 4 4 5 8 14 7 5 1 -3 -9 -12 -9 -13 -7
49 46 44 40 41 36 43 43 41 40 49 35 28 20 17 19 10 12 16 17 18 18 20 14 10 5 6 7 10 13 16 14 13 10 11 14 15 9 15 13 13 17 16 10 12 10 7 -0 7 15 11 8 8 10 11 9 2 1 1 3 1 2 1 2 -0 -2 -2 -1 -5 -0 -5 -4 -4 0 3 3 6 4 5 1 -1 -3 -5 -8 -14 -13 -10 -11
47 44 37 38 38 37 44 43 42 42 38 37 35 15 16 18 9 14 27 21 20 20 10 19 11 9 16 12 7 16 16 15 18 8 3 13 13 14 11 12 18 16 19 10 9 17 7 4 10 5 6 10 10 9 8 9 5 4 3 1 5 3 1 4 -2 0 -2 -4 -4 -3 0 -1 -6 -6 3 2 4 0 0 -2 -3 -5 -10 -15 -14 -12 -16 -15
46 42 35 37 33 40 41 40 41 40 38 33 21 18 9 16 18 20 23 25 24 15 12 7 15 8 14 10 10 16 15 14 11 7 3 6 8 18 14 11 15 18 21 24 11 13 11 10 4 7 8 12 13 8 6 9 7 3 1 6 3 0 -0 -1 1 -2 -4 -4 -4 -3 -2 -0 -2 -0 0 2 4 -1 -3 -4 -6 -13 -19 -16 -16 -21 -16 -10
39 43 36 31 37 38 43 40 41 38 37 27 21 21 14 18 20 26 26 26 20 15 10 10 12 10 9 13 11 13 15 12 12 6 3 5 4 11 12 14 11 19 22 21 14 12 10 7 5 7 6 7 5 5 4 2 8 7 7 3 4 0 2 -0 -0 1 -2 -4 -2 -3 1 -5 -4 0 2 1 1 -2 -4 -6 -13 -14 -12 -20 -15 -14 -14 -6
34 39 28 26 36 43 41 42 39 36 33 25 23 19 17 21 23 28 29 25 16 10 14 15 12 18 10 10 12 15 14 13 8 7 8 7 3 12 15 19 13 16 19 13 13 17 13 6 5 4 7 6 3 2 1 2 6 5 5 5 4 4 2 4 4 1 -0 -1 -3 -3 -6 -4 -4 4 2 2 -2 -4 -6 -7 -6 -12 -15 -18 -16 -17 -12 -6
38 39 31 34 37 41 41 36 29 25 23 23 22 18 22 17 24 26 30 29 29 27 14 11 10 11 6 11 13 13 15 13 9 12 7 7 5 7 18 18 20 18 19 12 11 14 13 6 6 5 4 2 2 5 2 2 3 3 4 4 2 2 1 -0 -1 8 3 1 -0 -2 -5 -1 0 -0 5 -2 -3 -6 -4 -7 -11 -16 -30 -17 -21 -15 -9 -8
34 21 25 36 37 39 43 31 25 24 26 22 18 20 22 32 24 26 23 29 25 20 20 18 18 14 12 9 11 15 12 13 9 9 10 10 8 8 14 24 23 23 18 12 15 11 14 9 6 8 3 2 4 8 9 4 3 3 3 3 3 7 4 -0 -2 1 4 3 5 3 0 -0 -1 4 -1 -2 -4 -3 -4 -9 -21 -21 -16 -21 -19 -14 -8 -9
39 29 27 36 35 43 32 23 27 28 25 25 28 22 23 21 20 22 19 19 15 19 15 15 17 13 12 15 17 16 15 14 10 10 6 9 12 15 16 24 25 20 17 15 13 10 20 10 7 7 5 5 6 6 5 7 3 3 1 2 4 3 4 2 1 4 2 3 0 0 -1 1 -4 -0 -4 -3 -3 -3 -6 -14 -14 -20 -27 -27 -17 -14 -10 -10
35 30 26 33 40 45 43 22 20 23 22 18 19 18 20 24 17 15 17 20 15 15 12 15 16 16 12 20 17 9 13 11 5 5 8 14 13 19 20 24 24 16 14 15 12 10 10 6 3 5 7 5 3 2 2 3 4 4 4 -0 2 6 7 7 7 3 1 3 2 1 -2 -2 -4 -0 -4 -6 -6 -4 -8 -14 -19 -22 -15 -19 -20 -13 -11 -10
24 28 37 33 29 35 32 23 23 24 24 19 15 14 15 16 24 25 15 20 24 18 16 14 16 18 16 19 19 16 11 6 7 6 14 16 19 17 23 24 24 16 19 24 28 21 8 7 5 2 3 3 4 4 4 5 7 3 1 1 3 8 8 5 1 2 1 3 3 2 -2 -2 -1 -2 -6 -7 -4 -5 -7 -15 -21 -18 -22 -15 -17 -12 -11 -11
35 13 27 31 26 26 23 25 26 23 22 20 20 14 16 17 18 21 23 22 23 22 19 17 18 17 14 15 13 14 10 11 5 14 14 13 13 18 19 18 23 20 24 24 21 10 7 8 4 5 5 4 7 8 5 6 4 8 11 8 6 4 7 6 5 2 0 3 2 3 3 0 -0 -3 -7 -5 -3 -7 -13 -20 -18 -17 -19 -22 -15 -12 -11 -10
30 27 20 16 33 24 21 24 19 21 21 19 16 16 16 15 14 18 24 13 22 21 19 18 17 15 11 13 12 14 14 13 6 11 13 14 16 13 13 17 22 28 27 25 18 14 9 8 9 6 9 7 4 4 5 6 5 5 9 11 7 5 7 5 2 2 5 3 -1 1 1 2 0 -3 -5 -3 -3 -8 -15 -18 -23 -17 -16 -20 -14 -11 -3 -9
22 19 24 23 27 17 24 19 23 23 19 23 21 14 17 15 14 21 17 20 22 19 15 13 15 20 17 13 12 11 8 3 4 13 11 11 16 13 17 16 16 17 24 14 15 13 12 8 9 11 11 10 8 6 6 6 6 6 6 4 5 4 6 4 5 4 4 2 0 1 1 2 -1 -3 -3 -1 -4 -11 -16 -16 -17 -24 -21 -16 -12 -13 -12 -9
30 21 23 25 25 17 21 16 24 28 25 20 21 15 17 15 17 14 17 16 9 12 11 12 3 18 21 20 12 16 9 10 14 11 11 13 17 15 16 16 16 11 15 7 8 12 11 7 10 9 10 8 7 7 6 5 5 5 8 2 0 2 6 7 6 3 2 4 2 2 2 -1 -1 -3 -1 -2 -8 -14 -16 -16 -16 -20 -22 -14 -12 -13 -11 -8
24 28 17 26 25 23 22 19 20 24 24 24 19 11 12 13 16 18 21 14 11 5 12 6 6 19 24 20 12 11 11 2 4 16 14 18 14 17 17 19 17 14 7 8 11 9 11 7 13 7 9 11 8 9 9 6 6 3 1 1 0 2 2 3 5 4 4 3 3 2 3 3 -1 -0 0 -5 -13 -18 -18 -17 -20 -22 -20 -13 -13 -13 -10 -7
32 34 30 25 19 18 27 20 19 19 15 17 16 14 13 12 14 19 20 24 7 6 12 6 12 23 21 18 17 17 18 12 8 9 9 13 14 16 20 18 13 19 13 12 13 14 13 10 8 7 7 8 5 4 3 2 1 2 0 -0 0 2 5 4 5 4 5 5 5 5 3 -1 -0 0 -2 -11 -17 -17 -17 -17 -20 -23 -18 -13 -14 -11 -8 -7
32 27 34 32 20 19 15 20 19 18 18 13 15 18 14 11 16 14 14 19 26 25 15 12 20 19 20 18 18 18 17 17 20 21 16 18 20 17 19 16 17 21 15 12 11 8 11 11 10 7 5 9 3 3 1 1 2 2 4 1 1 3 2 2 3 3 3 2 3 -1 -1 -1 1 1 -7 -15 -17 -17 -15 -17 -22 -22 -16 -15 -14 -10 -7 -7